Location: Tamazert
(32.6352°N, 5.2072°W)
Time: 13:46:13
(UTC+00:00)

Tiros 1 despin weight - Pass Details

Date: 06 October 2022
Orbit: 590 x 637 km, 48.2° (Epoch: 25 November)

Event Time Altitude Azimuth Distance (km) Brightness Sun altitude
Rises 21:01:49 0° 311° (NW) 2,892 ? -38.7°
Reaches altitude 10° 21:04:08 10° 314° (NW) 1,992 ? -39.1°
Enters shadow 21:04:14 11° 314° (NW) 1,948 ? -39.1°
Maximum altitude 21:08:42 69° 38° (NE) 672 - -40.0°
Drops below altitude 10° 21:13:19 10° 122° (ESE) 2,008 - -40.9°
Sets 21:15:39 0° 124° (SE) 2,918 - -41.4°
